Weather History for KLGB - May, 2013

Change the Weather History Date:

Monday, May 6, 2013

  Actual Average Record
Temperature  
Mean Temperature 63 °F 65 °F  
Max Temperature 68 °F 73 °F 100 °F (1990)
Min Temperature 58 °F 56 °F 46 °F (1964)
Degree Days  
Heating Degree Days 2 2  
Month to date heating degree days 7 12  
Since 1 July heating degree days 1038 1188  
Cooling Degree Days 0 2  
Month to date cooling degree days 23 12  
Year to date cooling degree days 52 59  
Growing Degree Days 12 (Base 50)    
Moisture  
Dew Point 55 °F    
Average Humidity 76    
Maximum Humidity 93    
Minimum Humidity 58    
Precipitation  
Precipitation 0.38 in 0.01 in 0.38 in (2013)
Month to date precipitation 0.49 0.06  
Year to date precipitation 2.70 8.22  
Since 1 July precipitation 6.50 12.04  
Sea Level Pressure  
Sea Level Pressure 29.96 in    
Wind  
Wind Speed 6 mph (SSE)    
Max Wind Speed 15 mph    
Max Gust Speed 22 mph    
Visibility 7 miles    
Events Rain    
T = Trace of Precipitation, MM = Missing Value Source: NWS Daily Summary

Daily Weather History Graph

Daily Weather History Graph

Search for Another Location

Airport or City:

Trip Planner

Search our weather history database for the weather conditions in past years. The results will help you decide how hot, cold, wet, or windy it might be!

Date:

Astronomy

May. 06, 2013 Rise Set
Actual Time 5:58 AM PDT 7:40 PM PDT
Civil Twilight 5:31 AM PDT 8:07 PM PDT
Nautical Twilight 4:59 AM PDT 8:39 PM PDT
Astronomical Twilight 4:24 AM PDT 9:14 PM PDT
Moon 3:54 AM PDT (5/6) 4:52 PM PDT (5/6)
Length of Visible Light 14h 35m
Length of Day
13h 41m
Waning Crescent, 10% of the Moon is Illuminated
May 6
Waning Crescent
May 9
New
May 17
First Quarter
May 24
Full
May 31
Last Quarter

Hourly Weather History & Observations

Time (PDT) Temp. Dew Point Humidity Pressure Visibility Wind Dir Wind Speed Gust Speed Precip Events Conditions
12:13 AM 59.0 °F 55.4 °F 88% 29.95 in 2.0 mi SSE 6.9 mph - 0.04 in Rain Rain
12:49 AM 57.2 °F 55.4 °F 94% 29.94 in 5.0 mi East 6.9 mph - 0.11 in Rain Light Rain
12:53 AM 57.9 °F 55.0 °F 90% 29.94 in 4.0 mi East 6.9 mph - 0.11 in Rain Light Rain
1:13 AM 57.2 °F 55.4 °F 94% 29.94 in 2.5 mi ESE 5.8 mph - 0.02 in Rain Rain
1:21 AM 57.2 °F 55.4 °F 94% 29.94 in 2.5 mi SE 4.6 mph - 0.03 in Rain Light Rain
1:24 AM 57.2 °F 55.4 °F 94% 29.93 in 3.0 mi ESE 5.8 mph - 0.03 in Rain Light Rain
1:48 AM 57.2 °F 55.4 °F 94% 29.93 in 2.0 mi SE 6.9 mph - 0.07 in Rain Rain
1:49 AM 57.9 °F 55.9 °F 93% 29.93 in 2.0 mi SE 6.9 mph - 0.07 in Rain Rain
1:59 AM 57.2 °F 55.4 °F 94% 29.93 in 2.5 mi Variable 4.6 mph - 0.02 in Rain Light Rain
2:08 AM 59.0 °F 55.4 °F 88% 29.93 in 5.0 mi SE 6.9 mph - 0.03 in Rain Light Rain
2:27 AM 59.0 °F 55.4 °F 88% 29.92 in 9.0 mi SSE 4.6 mph - 0.03 in Rain Light Rain
2:53 AM 59.0 °F 55.9 °F 90% 29.91 in 10.0 mi SE 5.8 mph - 0.03 in   Overcast
3:53 AM 59.0 °F 55.9 °F 90% 29.91 in 5.0 mi SSE 5.8 mph - 0.02 in Rain Light Rain
4:23 AM 59.0 °F 55.4 °F 88% 29.91 in 2.0 mi SE 6.9 mph - 0.06 in Rain Heavy Rain
4:40 AM 57.2 °F 55.4 °F 94% 29.90 in 2.5 mi SSE 3.5 mph - 0.10 in Rain Light Rain
4:48 AM 59.0 °F 55.4 °F 88% 29.91 in 3.0 mi SSE 4.6 mph - 0.11 in Rain Light Rain
4:53 AM 59.0 °F 57.0 °F 93% 29.91 in 2.5 mi SSE 3.5 mph - 0.13 in Rain Rain
5:03 AM 59.0 °F 57.2 °F 94% 29.91 in 4.0 mi Calm Calm - 0.01 in Rain Light Rain
5:41 AM 59.0 °F 57.2 °F 94% 29.91 in 10.0 mi South 5.8 mph - 0.03 in   Overcast
5:53 AM 60.1 °F 57.0 °F 90% 29.91 in 10.0 mi Variable 3.5 mph - 0.03 in   Overcast
6:08 AM 60.8 °F 57.2 °F 88% 29.92 in 8.0 mi South 3.5 mph - N/A   Overcast
6:53 AM 60.1 °F 55.9 °F 86% 29.94 in 10.0 mi South 4.6 mph - 0.00 in   Overcast
7:38 AM 62.6 °F 57.2 °F 82% 29.95 in 10.0 mi South 5.8 mph - 0.00 in   Overcast
7:46 AM 62.6 °F 57.2 °F 82% 29.95 in 10.0 mi South 3.5 mph - 0.00 in   Overcast
7:53 AM 62.1 °F 57.0 °F 84% 29.96 in 10.0 mi South 5.8 mph - 0.00 in   Overcast
8:03 AM 62.6 °F 57.2 °F 82% 29.95 in 10.0 mi SSE 5.8 mph - N/A   Overcast
8:53 AM 62.1 °F 57.0 °F 84% 29.96 in 7.0 mi SSE 8.1 mph - N/A   Overcast
9:00 AM 62.6 °F 57.2 °F 82% 29.97 in 8.0 mi SE 11.5 mph - N/A   Overcast
9:13 AM 60.8 °F 57.2 °F 88% 29.97 in 1.8 mi SSE 6.9 mph - 0.02 in Rain Rain
9:23 AM 60.8 °F 57.2 °F 88% 29.97 in 3.0 mi ESE 4.6 mph - 0.08 in Rain Light Rain
9:53 AM 63.0 °F 57.9 °F 84% 29.97 in 10.0 mi SE 6.9 mph - 0.08 in   Mostly Cloudy
10:53 AM 64.0 °F 55.0 °F 73% 29.99 in 10.0 mi South 5.8 mph - 0.00 in Rain Light Rain
11:13 AM 64.4 °F 53.6 °F 68% 29.99 in 10.0 mi South 5.8 mph - N/A   Overcast
11:22 AM 64.4 °F 53.6 °F 68% 29.99 in 10.0 mi SW 4.6 mph - N/A   Overcast
11:53 AM 64.0 °F 57.0 °F 78% 29.99 in 10.0 mi SSW 5.8 mph 17.3 mph N/A Rain Light Rain
12:53 PM 66.0 °F 54.0 °F 65% 29.98 in 10.0 mi South 6.9 mph - 0.00 in   Mostly Cloudy
1:53 PM 68.0 °F 53.1 °F 59% 29.98 in 10.0 mi South 11.5 mph - N/A   Mostly Cloudy
2:53 PM 66.0 °F 52.0 °F 60% 29.98 in 10.0 mi South 11.5 mph - N/A   Overcast
3:46 PM 66.2 °F 53.6 °F 64% 29.97 in 10.0 mi South 9.2 mph - N/A   Overcast
3:53 PM 66.9 °F 54.0 °F 63% 29.97 in 10.0 mi SSW 6.9 mph - N/A   Overcast
3:54 PM 66.2 °F 53.6 °F 64% 29.97 in 10.0 mi Variable 6.9 mph - N/A   Overcast
4:04 PM 64.4 °F 55.4 °F 73% 29.97 in 10.0 mi SSE 13.8 mph 20.7 mph N/A   Overcast
4:12 PM 62.6 °F 55.4 °F 77% 29.97 in 8.0 mi South 12.7 mph 21.9 mph 0.00 in Rain Light Rain
4:16 PM 62.6 °F 55.4 °F 77% 29.97 in 4.0 mi SSW 8.1 mph 21.9 mph 0.01 in Rain Rain
4:53 PM 64.0 °F 52.0 °F 65% 29.97 in 10.0 mi South 6.9 mph - 0.02 in   Overcast
5:53 PM 64.0 °F 53.1 °F 67% 29.97 in 10.0 mi South 6.9 mph - N/A   Mostly Cloudy
6:53 PM 64.0 °F 54.0 °F 70% 29.98 in 10.0 mi South 8.1 mph - N/A   Mostly Cloudy
7:53 PM 63.0 °F 54.0 °F 72% 29.99 in 10.0 mi South 6.9 mph - N/A   Overcast
8:53 PM 62.1 °F 55.9 °F 80% 30.01 in 10.0 mi South 4.6 mph - N/A   Overcast
9:28 PM 60.8 °F 55.4 °F 82% 30.01 in 10.0 mi SSE 5.8 mph - N/A   Mostly Cloudy
9:37 PM 60.8 °F 55.4 °F 82% 30.01 in 10.0 mi South 3.5 mph - N/A   Partly Cloudy
9:53 PM 60.1 °F 55.0 °F 83% 30.02 in 10.0 mi South 3.5 mph - N/A   Scattered Clouds
10:53 PM 59.0 °F 55.0 °F 87% 30.02 in 10.0 mi South 3.5 mph - N/A   Overcast
11:53 PM 62.1 °F 55.9 °F 80% 30.03 in 10.0 mi South 4.6 mph - 0.00 in   Overcast